Location: Canet
(43.3261°N, 5.3723°E)
Time: 19:03:27
(UTC+00:00)

ISS - Pass Details

Date: 24 January 2021
Orbit: 417 x 422 km, 51.6° (Epoch: 08 March)

Event Time Altitude Azimuth Distance (km) Brightness Sun altitude
Rises 19:20:44 0° 292° (WNW) 2,374 1.1 -29.1°
Reaches altitude 10° 19:23:15 10° 310° (NW) 1,510 -0.4 -29.6°
Enters shadow 19:23:24 11° 312° (NW) 1,465 -0.5 -29.6°
